Year,Month,Day,Hour,Minute,Value (Times are PST for temperature in C)
2012,07,13,00,00,20.60
2012,07,13,00,01,20.60
2012,07,13,00,02,20.60
2012,07,13,00,03,20.60
2012,07,13,00,04,20.60
2012,07,13,00,05,20.60
2012,07,13,00,06,20.60
2012,07,13,00,07,20.60
2012,07,13,00,08,20.60
2012,07,13,00,09,20.60
2012,07,13,00,10,20.60
2012,07,13,00,11,20.60
2012,07,13,00,12,20.60
2012,07,13,00,13,20.60
2012,07,13,00,14,20.60
2012,07,13,00,15,20.60
2012,07,13,00,16,20.60
2012,07,13,00,17,20.60
2012,07,13,00,18,20.60
2012,07,13,00,19,20.50
2012,07,13,00,20,20.50
2012,07,13,00,21,20.50
2012,07,13,00,22,20.50
2012,07,13,00,23,20.50
2012,07,13,00,24,20.50
2012,07,13,00,25,20.40
2012,07,13,00,26,20.40
2012,07,13,00,27,20.40
2012,07,13,00,28,20.40
2012,07,13,00,29,20.40
2012,07,13,00,30,20.30
2012,07,13,00,31,20.30
2012,07,13,00,32,20.30
2012,07,13,00,33,20.30
2012,07,13,00,34,20.30
2012,07,13,00,35,20.30
2012,07,13,00,36,20.30
2012,07,13,00,37,20.30
2012,07,13,00,38,20.30
2012,07,13,00,39,20.30
2012,07,13,00,40,20.30
2012,07,13,00,41,20.30
2012,07,13,00,42,20.30
2012,07,13,00,43,20.30
2012,07,13,00,44,20.40
2012,07,13,00,45,20.40
2012,07,13,00,46,20.40
2012,07,13,00,47,20.40
2012,07,13,00,48,20.40
2012,07,13,00,49,20.40
2012,07,13,00,50,20.40
2012,07,13,00,51,20.40
2012,07,13,00,52,20.40
2012,07,13,00,53,20.40
2012,07,13,00,54,20.40
2012,07,13,00,55,20.30
2012,07,13,00,56,20.30
2012,07,13,00,57,20.30
2012,07,13,00,58,20.30
2012,07,13,00,59,20.30
2012,07,13,01,00,20.30
2012,07,13,01,01,20.30
2012,07,13,01,02,20.30
2012,07,13,01,03,20.30
2012,07,13,01,04,20.30
2012,07,13,01,05,20.30
2012,07,13,01,06,20.30
2012,07,13,01,07,20.30
2012,07,13,01,08,20.30
2012,07,13,01,09,20.20
2012,07,13,01,10,20.20
2012,07,13,01,11,20.20
2012,07,13,01,12,20.20
2012,07,13,01,13,20.20
2012,07,13,01,14,20.10
2012,07,13,01,15,20.10
2012,07,13,01,16,20.10
2012,07,13,01,17,20.10
2012,07,13,01,18,20.10
2012,07,13,01,19,20.00
2012,07,13,01,20,20.10
2012,07,13,01,21,20.00
2012,07,13,01,22,20.00
2012,07,13,01,23,20.00
2012,07,13,01,24,20.00
2012,07,13,01,25,20.00
2012,07,13,01,26,20.00
2012,07,13,01,27,20.00
2012,07,13,01,28,20.00
2012,07,13,01,29,19.90
2012,07,13,01,30,19.90
2012,07,13,01,31,19.90
2012,07,13,01,32,19.90
2012,07,13,01,33,19.80
2012,07,13,01,34,19.80
2012,07,13,01,35,19.80
2012,07,13,01,36,19.80
2012,07,13,01,37,19.70
2012,07,13,01,38,19.70
2012,07,13,01,39,19.70
2012,07,13,01,40,19.60
2012,07,13,01,41,19.60
2012,07,13,01,42,19.60
2012,07,13,01,43,19.60
2012,07,13,01,44,19.60
2012,07,13,01,45,19.60
2012,07,13,01,46,19.60
2012,07,13,01,47,19.60
2012,07,13,01,48,19.60
2012,07,13,01,49,19.60
2012,07,13,01,50,19.60
2012,07,13,01,51,19.60
2012,07,13,01,52,19.50
2012,07,13,01,53,19.50
2012,07,13,01,54,19.40
2012,07,13,01,55,19.40
2012,07,13,01,56,19.40
2012,07,13,01,57,19.30
2012,07,13,01,58,19.30
2012,07,13,01,59,19.20
2012,07,13,02,00,19.20
2012,07,13,02,01,19.20
2012,07,13,02,02,19.20
2012,07,13,02,03,19.20
2012,07,13,02,04,19.20
2012,07,13,02,05,19.20
2012,07,13,02,06,19.20
2012,07,13,02,07,19.20
2012,07,13,02,08,19.20
2012,07,13,02,09,19.20
2012,07,13,02,10,19.20
2012,07,13,02,11,19.20
2012,07,13,02,12,19.10
2012,07,13,02,13,19.10
2012,07,13,02,14,19.10
2012,07,13,02,15,19.10
2012,07,13,02,16,19.10
2012,07,13,02,17,19.10
2012,07,13,02,18,19.00
2012,07,13,02,19,19.00
2012,07,13,02,20,19.00
2012,07,13,02,21,19.00
2012,07,13,02,22,18.90
2012,07,13,02,23,18.90
2012,07,13,02,24,18.90
2012,07,13,02,25,18.80
2012,07,13,02,26,18.80
2012,07,13,02,27,18.80
2012,07,13,02,28,18.80
2012,07,13,02,29,18.80
2012,07,13,02,30,18.80
2012,07,13,02,31,18.80
2012,07,13,02,32,18.80
2012,07,13,02,33,18.80
2012,07,13,02,34,18.80
2012,07,13,02,35,18.80
2012,07,13,02,36,18.80
2012,07,13,02,37,18.80
2012,07,13,02,38,18.70
2012,07,13,02,39,18.70
2012,07,13,02,40,18.70
2012,07,13,02,41,18.70
2012,07,13,02,42,18.70
2012,07,13,02,43,18.70
2012,07,13,02,44,18.70
2012,07,13,02,45,18.60
2012,07,13,02,46,18.60
2012,07,13,02,47,18.60
2012,07,13,02,48,18.60
2012,07,13,02,49,18.60
2012,07,13,02,50,18.60
2012,07,13,02,51,18.60
2012,07,13,02,52,18.60
2012,07,13,02,53,18.60
2012,07,13,02,54,18.60
2012,07,13,02,55,18.50
2012,07,13,02,56,18.50
2012,07,13,02,57,18.50
2012,07,13,02,58,18.40
2012,07,13,02,59,18.40
2012,07,13,03,00,18.40
2012,07,13,03,01,18.40
2012,07,13,03,02,18.30
2012,07,13,03,03,18.30
2012,07,13,03,04,18.30
2012,07,13,03,05,18.30
2012,07,13,03,06,18.20
2012,07,13,03,07,18.20
2012,07,13,03,08,18.20
2012,07,13,03,09,18.10
2012,07,13,03,10,18.10
2012,07,13,03,11,18.10
2012,07,13,03,12,18.10
2012,07,13,03,13,18.10
2012,07,13,03,14,18.00
2012,07,13,03,15,18.00
2012,07,13,03,16,18.00
2012,07,13,03,17,17.90
2012,07,13,03,18,17.90
2012,07,13,03,19,17.90
2012,07,13,03,20,17.90
2012,07,13,03,21,17.90
2012,07,13,03,22,17.90
2012,07,13,03,23,17.90
2012,07,13,03,24,17.90
2012,07,13,03,25,17.90
2012,07,13,03,26,17.80
2012,07,13,03,27,17.80
2012,07,13,03,28,17.80
2012,07,13,03,29,17.80
2012,07,13,03,30,17.80
2012,07,13,03,31,17.80
2012,07,13,03,32,17.80
2012,07,13,03,33,17.80
2012,07,13,03,34,17.70
2012,07,13,03,35,17.70
2012,07,13,03,36,17.70
2012,07,13,03,37,17.70
2012,07,13,03,38,17.70
2012,07,13,03,39,17.70
2012,07,13,03,40,17.60
2012,07,13,03,41,17.60
2012,07,13,03,42,17.50
2012,07,13,03,43,17.50
2012,07,13,03,44,17.40
2012,07,13,03,45,17.30
2012,07,13,03,46,17.30
2012,07,13,03,47,17.30
2012,07,13,03,48,17.30
2012,07,13,03,49,17.20
2012,07,13,03,50,17.30
2012,07,13,03,51,17.30
2012,07,13,03,52,17.30
2012,07,13,03,53,17.30
2012,07,13,03,54,17.30
2012,07,13,03,55,17.30
2012,07,13,03,56,17.30
2012,07,13,03,57,17.40
2012,07,13,03,58,17.40
2012,07,13,03,59,17.40
2012,07,13,04,00,17.40
2012,07,13,04,01,17.40
2012,07,13,04,02,17.40
2012,07,13,04,03,17.40
2012,07,13,04,04,17.40
2012,07,13,04,05,17.40
2012,07,13,04,06,17.40
2012,07,13,04,07,17.40
2012,07,13,04,08,17.50
2012,07,13,04,09,17.50
2012,07,13,04,10,17.60
2012,07,13,04,11,17.60
2012,07,13,04,12,17.60
2012,07,13,04,13,17.70
2012,07,13,04,14,17.70
2012,07,13,04,15,17.80
2012,07,13,04,16,17.80
2012,07,13,04,17,17.80
2012,07,13,04,18,17.80
2012,07,13,04,19,17.80
2012,07,13,04,20,17.80
2012,07,13,04,21,17.80
2012,07,13,04,22,17.70
2012,07,13,04,23,17.70
2012,07,13,04,24,17.70
2012,07,13,04,25,17.70
2012,07,13,04,26,17.60
2012,07,13,04,27,17.60
2012,07,13,04,28,17.60
2012,07,13,04,29,17.60
2012,07,13,04,30,17.60
2012,07,13,04,31,17.60
2012,07,13,04,32,17.50
2012,07,13,04,33,17.50
2012,07,13,04,34,17.50
2012,07,13,04,35,17.40
2012,07,13,04,36,17.40
2012,07,13,04,37,17.40
2012,07,13,04,38,17.40
2012,07,13,04,39,17.40
2012,07,13,04,40,17.40
2012,07,13,04,41,17.50
2012,07,13,04,42,17.50
2012,07,13,04,43,17.60
2012,07,13,04,44,17.70
2012,07,13,04,45,17.70
2012,07,13,04,46,17.70
2012,07,13,04,47,17.70
2012,07,13,04,48,17.70
2012,07,13,04,49,17.70
2012,07,13,04,50,17.70
2012,07,13,04,51,17.70
2012,07,13,04,52,17.70
2012,07,13,04,53,17.70
2012,07,13,04,54,17.70
2012,07,13,04,55,17.70
2012,07,13,04,56,17.70
2012,07,13,04,57,17.70
2012,07,13,04,58,17.70
2012,07,13,04,59,17.70
2012,07,13,05,00,17.70
2012,07,13,05,01,17.70
2012,07,13,05,02,17.70
2012,07,13,05,03,17.70
2012,07,13,05,04,17.60
2012,07,13,05,05,17.60
2012,07,13,05,06,17.60
2012,07,13,05,07,17.60
2012,07,13,05,08,17.50
2012,07,13,05,09,17.50
2012,07,13,05,10,17.50
2012,07,13,05,11,17.40
2012,07,13,05,12,17.40
2012,07,13,05,13,17.40
2012,07,13,05,14,17.40
2012,07,13,05,15,17.30
2012,07,13,05,16,17.30
2012,07,13,05,17,17.30
2012,07,13,05,18,17.30
2012,07,13,05,19,17.30
2012,07,13,05,20,17.30
2012,07,13,05,21,17.30
2012,07,13,05,22,17.30
2012,07,13,05,23,17.30
2012,07,13,05,24,17.30
2012,07,13,05,25,17.30
2012,07,13,05,26,17.30
2012,07,13,05,27,17.30
2012,07,13,05,28,17.30
2012,07,13,05,29,17.30
2012,07,13,05,30,17.30
2012,07,13,05,31,17.30
2012,07,13,05,32,17.30
2012,07,13,05,33,17.30
2012,07,13,05,34,17.30
2012,07,13,05,35,17.30
2012,07,13,05,36,17.30
2012,07,13,05,37,17.20
2012,07,13,05,38,17.20
2012,07,13,05,39,17.20
2012,07,13,05,40,17.20
2012,07,13,05,41,17.20
2012,07,13,05,42,17.20
2012,07,13,05,43,17.20
2012,07,13,05,44,17.10
2012,07,13,05,45,17.10
2012,07,13,05,46,17.10
2012,07,13,05,47,17.10
2012,07,13,05,48,17.10
2012,07,13,05,49,17.10
2012,07,13,05,50,17.10
2012,07,13,05,51,17.10
2012,07,13,05,52,17.10
2012,07,13,05,53,17.10
2012,07,13,05,54,17.10
2012,07,13,05,55,17.10
2012,07,13,05,56,17.10
2012,07,13,05,57,17.00
2012,07,13,05,58,17.00
2012,07,13,05,59,17.00
2012,07,13,06,00,17.00
2012,07,13,06,01,17.00
2012,07,13,06,02,17.00
2012,07,13,06,03,17.10
2012,07,13,06,04,17.10
2012,07,13,06,05,17.10
2012,07,13,06,06,17.10
2012,07,13,06,07,17.20
2012,07,13,06,08,17.20
2012,07,13,06,09,17.20
2012,07,13,06,10,17.20
2012,07,13,06,11,17.20
2012,07,13,06,12,17.20
2012,07,13,06,13,17.20
2012,07,13,06,14,17.20
2012,07,13,06,15,17.20
2012,07,13,06,16,17.20
2012,07,13,06,17,17.20
2012,07,13,06,18,17.20
2012,07,13,06,19,17.20
2012,07,13,06,20,17.30
2012,07,13,06,21,17.30
2012,07,13,06,22,17.30
2012,07,13,06,23,17.30
2012,07,13,06,24,17.30
2012,07,13,06,25,17.30
2012,07,13,06,26,17.30
2012,07,13,06,27,17.30
2012,07,13,06,28,17.30
2012,07,13,06,29,17.30
2012,07,13,06,30,17.30
2012,07,13,06,31,17.30
2012,07,13,06,32,17.30
2012,07,13,06,33,17.30
2012,07,13,06,34,17.30
2012,07,13,06,35,17.30
2012,07,13,06,36,17.30
2012,07,13,06,37,17.30
2012,07,13,06,38,17.30
2012,07,13,06,39,17.30
2012,07,13,06,40,17.30
2012,07,13,06,41,17.30
2012,07,13,06,42,17.30
2012,07,13,06,43,17.30
2012,07,13,06,44,17.30
2012,07,13,06,45,17.30
2012,07,13,06,46,17.40
2012,07,13,06,47,17.40
2012,07,13,06,48,17.40
2012,07,13,06,49,17.40
2012,07,13,06,50,17.50
2012,07,13,06,51,17.50
2012,07,13,06,52,17.60
2012,07,13,06,53,17.60
2012,07,13,06,54,17.60
2012,07,13,06,55,17.60
2012,07,13,06,56,17.60
2012,07,13,06,57,17.60
2012,07,13,06,58,17.70
2012,07,13,06,59,17.70
2012,07,13,07,00,17.70
2012,07,13,07,01,17.80
2012,07,13,07,02,17.80
2012,07,13,07,03,17.80
2012,07,13,07,04,17.80
2012,07,13,07,05,17.80
2012,07,13,07,06,17.90
2012,07,13,07,07,17.90
2012,07,13,07,08,17.90
2012,07,13,07,09,17.90
2012,07,13,07,10,17.90
2012,07,13,07,11,17.90
2012,07,13,07,12,17.90
2012,07,13,07,13,17.90
2012,07,13,07,14,17.90
2012,07,13,07,15,18.00
2012,07,13,07,16,18.00
2012,07,13,07,17,17.90
2012,07,13,07,18,17.90
2012,07,13,07,19,17.90
2012,07,13,07,20,17.90
2012,07,13,07,21,17.90
2012,07,13,07,22,17.90
2012,07,13,07,23,17.90
2012,07,13,07,24,17.90
2012,07,13,07,25,17.80
2012,07,13,07,26,17.80
2012,07,13,07,27,17.80
2012,07,13,07,28,17.80
2012,07,13,07,29,17.80
2012,07,13,07,30,17.80
2012,07,13,07,31,17.80
2012,07,13,07,32,17.90
2012,07,13,07,33,17.90
2012,07,13,07,34,17.90
2012,07,13,07,35,17.90
2012,07,13,07,36,17.90
2012,07,13,07,37,17.90
2012,07,13,07,38,17.90
2012,07,13,07,39,17.90
2012,07,13,07,40,17.90
2012,07,13,07,41,17.80
2012,07,13,07,42,17.80
2012,07,13,07,43,17.80
2012,07,13,07,44,17.80
2012,07,13,07,45,17.80
2012,07,13,07,46,17.80
2012,07,13,07,47,17.80
2012,07,13,07,48,17.80
2012,07,13,07,49,17.80
2012,07,13,07,50,17.80
2012,07,13,07,51,17.80
2012,07,13,07,52,17.80
2012,07,13,07,53,17.80
2012,07,13,07,54,17.80
2012,07,13,07,55,17.80
2012,07,13,07,56,17.90
2012,07,13,07,57,17.90
2012,07,13,07,58,17.90
2012,07,13,07,59,17.90
2012,07,13,08,00,17.90
2012,07,13,08,01,17.90
2012,07,13,08,02,17.90
2012,07,13,08,03,17.90
2012,07,13,08,04,17.90
2012,07,13,08,05,17.90
2012,07,13,08,06,17.90
2012,07,13,08,07,17.90
2012,07,13,08,08,17.90
2012,07,13,08,09,17.90
2012,07,13,08,10,17.90
2012,07,13,08,11,17.90
2012,07,13,08,12,17.80
2012,07,13,08,13,17.80
2012,07,13,08,14,17.80
2012,07,13,08,15,17.80
2012,07,13,08,16,17.80
2012,07,13,08,17,17.80
2012,07,13,08,18,17.80
2012,07,13,08,19,17.80
2012,07,13,08,20,17.80
2012,07,13,08,21,17.80
2012,07,13,08,22,17.80
2012,07,13,08,23,17.80
2012,07,13,08,24,17.80
2012,07,13,08,25,17.80
2012,07,13,08,26,17.80
2012,07,13,08,27,17.90
2012,07,13,08,28,17.90
2012,07,13,08,29,17.90
2012,07,13,08,30,17.90
2012,07,13,08,31,18.00
2012,07,13,08,32,18.10
2012,07,13,08,33,18.10
2012,07,13,08,34,18.20
2012,07,13,08,35,18.20
2012,07,13,08,36,18.30
2012,07,13,08,37,18.40
2012,07,13,08,38,18.50
2012,07,13,08,39,18.60
2012,07,13,08,40,18.60
2012,07,13,08,41,18.70
2012,07,13,08,42,18.80
2012,07,13,08,43,18.80
2012,07,13,08,44,18.90
2012,07,13,08,45,19.00
2012,07,13,08,46,19.10
2012,07,13,08,47,19.10
2012,07,13,08,48,19.20
2012,07,13,08,49,19.30
2012,07,13,08,50,19.30
2012,07,13,08,51,19.30
2012,07,13,08,52,19.30
2012,07,13,08,53,19.30
2012,07,13,08,54,19.30
2012,07,13,08,55,19.40
2012,07,13,08,56,19.40
2012,07,13,08,57,19.50
2012,07,13,08,58,19.60
2012,07,13,08,59,19.60
2012,07,13,09,00,19.70
2012,07,13,09,01,19.80
2012,07,13,09,02,19.80
2012,07,13,09,03,19.80
2012,07,13,09,04,19.80
2012,07,13,09,05,19.80
2012,07,13,09,06,19.80
2012,07,13,09,07,19.80
2012,07,13,09,08,19.70
2012,07,13,09,09,19.70
2012,07,13,09,10,19.60
2012,07,13,09,11,19.60
2012,07,13,09,12,19.60
2012,07,13,09,13,19.70
2012,07,13,09,14,19.70
2012,07,13,09,15,19.70
2012,07,13,09,16,19.70
2012,07,13,09,17,19.70
2012,07,13,09,18,19.80
2012,07,13,09,19,19.80
2012,07,13,09,20,19.90
2012,07,13,09,21,20.00
2012,07,13,09,22,20.10
2012,07,13,09,23,20.10
2012,07,13,09,24,20.10
2012,07,13,09,25,20.20
2012,07,13,09,26,20.20
2012,07,13,09,27,20.10
2012,07,13,09,28,20.10
2012,07,13,09,29,20.00
2012,07,13,09,30,19.90
2012,07,13,09,31,19.90
2012,07,13,09,32,19.90
2012,07,13,09,33,19.90
2012,07,13,09,34,19.90
2012,07,13,09,35,19.90
2012,07,13,09,36,19.90
2012,07,13,09,37,19.90
2012,07,13,09,38,19.80
2012,07,13,09,39,19.70
2012,07,13,09,40,19.70
2012,07,13,09,41,19.60
2012,07,13,09,42,19.60
2012,07,13,09,43,19.50
2012,07,13,09,44,19.50
2012,07,13,09,45,19.50
2012,07,13,09,46,19.40
2012,07,13,09,47,19.50
2012,07,13,09,48,19.50
2012,07,13,09,49,19.50
2012,07,13,09,50,19.60
2012,07,13,09,51,19.60
2012,07,13,09,52,19.60
2012,07,13,09,53,19.70
2012,07,13,09,54,19.70
2012,07,13,09,55,19.60
2012,07,13,09,56,19.60
2012,07,13,09,57,19.60
2012,07,13,09,58,19.60
2012,07,13,09,59,19.60
2012,07,13,10,00,19.60
2012,07,13,10,01,19.50
2012,07,13,10,02,19.50
2012,07,13,10,03,19.50
2012,07,13,10,04,19.50
2012,07,13,10,05,19.40
2012,07,13,10,06,19.40
2012,07,13,10,07,19.40
2012,07,13,10,08,19.40
2012,07,13,10,09,19.40
2012,07,13,10,10,19.30
2012,07,13,10,11,19.30
2012,07,13,10,12,19.30
2012,07,13,10,13,19.30
2012,07,13,10,14,19.20
2012,07,13,10,15,19.20
2012,07,13,10,16,19.20
2012,07,13,10,17,19.30
2012,07,13,10,18,19.30
2012,07,13,10,19,19.30
2012,07,13,10,20,19.30
2012,07,13,10,21,19.40
2012,07,13,10,22,19.50
2012,07,13,10,23,19.60
2012,07,13,10,24,19.60
2012,07,13,10,25,19.70
2012,07,13,10,26,19.70
2012,07,13,10,27,19.80
2012,07,13,10,28,19.80
2012,07,13,10,29,19.90
2012,07,13,10,30,20.10
2012,07,13,10,31,20.10
2012,07,13,10,32,20.20
2012,07,13,10,33,20.20
2012,07,13,10,34,20.20
2012,07,13,10,35,20.30
2012,07,13,10,36,20.30
2012,07,13,10,37,20.30
2012,07,13,10,38,20.30
2012,07,13,10,39,20.30
2012,07,13,10,40,20.30
2012,07,13,10,41,20.30
2012,07,13,10,42,20.30
2012,07,13,10,43,20.30
2012,07,13,10,44,20.40
2012,07,13,10,45,20.40
2012,07,13,10,46,20.40
2012,07,13,10,47,20.40
2012,07,13,10,48,20.50
2012,07,13,10,49,20.50
2012,07,13,10,50,20.50
2012,07,13,10,51,20.50
2012,07,13,10,52,20.50
2012,07,13,10,53,20.60
2012,07,13,10,54,20.60
2012,07,13,10,55,20.60
2012,07,13,10,56,20.60
2012,07,13,10,57,20.60
2012,07,13,10,58,20.60
2012,07,13,10,59,20.60
2012,07,13,11,00,20.60
2012,07,13,11,01,20.70
2012,07,13,11,02,20.60
2012,07,13,11,03,20.60
2012,07,13,11,04,20.50
2012,07,13,11,05,20.50
2012,07,13,11,06,20.40
2012,07,13,11,07,20.40
2012,07,13,11,08,20.40
2012,07,13,11,09,20.50
2012,07,13,11,10,20.50
2012,07,13,11,11,20.60
2012,07,13,11,12,20.70
2012,07,13,11,13,20.80
2012,07,13,11,14,20.80
2012,07,13,11,15,20.90
2012,07,13,11,16,20.90
2012,07,13,11,17,20.90
2012,07,13,11,18,21.00
2012,07,13,11,19,21.00
2012,07,13,11,20,21.00
2012,07,13,11,21,21.10
2012,07,13,11,22,21.10
2012,07,13,11,23,21.10
2012,07,13,11,24,21.10
2012,07,13,11,25,21.10
2012,07,13,11,26,21.10
2012,07,13,11,27,21.10
2012,07,13,11,28,21.10
2012,07,13,11,29,21.00
2012,07,13,11,30,21.10
2012,07,13,11,31,21.10
2012,07,13,11,32,21.20
2012,07,13,11,33,21.20
2012,07,13,11,34,21.20
2012,07,13,11,35,21.20
2012,07,13,11,36,21.20
2012,07,13,11,37,21.20
2012,07,13,11,38,21.20
2012,07,13,11,39,21.20
2012,07,13,11,40,21.30
2012,07,13,11,41,21.20
2012,07,13,11,42,21.20
2012,07,13,11,43,21.10
2012,07,13,11,44,21.10
2012,07,13,11,45,21.10
2012,07,13,11,46,21.00
2012,07,13,11,47,21.00
2012,07,13,11,48,20.90
2012,07,13,11,49,20.90
2012,07,13,11,50,20.90
2012,07,13,11,51,21.00
2012,07,13,11,52,21.00
2012,07,13,11,53,21.00
2012,07,13,11,54,21.00
2012,07,13,11,55,20.90
2012,07,13,11,56,20.90
2012,07,13,11,57,20.90
2012,07,13,11,58,20.90
2012,07,13,11,59,20.80
2012,07,13,12,00,20.80
2012,07,13,12,01,20.80
2012,07,13,12,02,20.80
2012,07,13,12,03,20.90
2012,07,13,12,04,20.90
2012,07,13,12,05,20.90
2012,07,13,12,06,20.80
2012,07,13,12,07,20.80
2012,07,13,12,08,20.70
2012,07,13,12,09,20.60
2012,07,13,12,10,20.60
2012,07,13,12,11,20.70
2012,07,13,12,12,20.70
2012,07,13,12,13,20.70
2012,07,13,12,14,20.70
2012,07,13,12,15,20.70
2012,07,13,12,16,20.70
2012,07,13,12,17,20.70
2012,07,13,12,18,20.70
2012,07,13,12,19,20.70
2012,07,13,12,20,20.70
2012,07,13,12,21,20.80
2012,07,13,12,22,20.80
2012,07,13,12,23,20.70
2012,07,13,12,24,20.70
2012,07,13,12,25,20.60
2012,07,13,12,26,20.60
2012,07,13,12,27,20.50
2012,07,13,12,28,20.40
2012,07,13,12,29,20.40
2012,07,13,12,30,20.30
2012,07,13,12,31,20.20
2012,07,13,12,32,20.10
2012,07,13,12,33,20.10
2012,07,13,12,34,20.10
2012,07,13,12,35,20.10
2012,07,13,12,36,20.10
2012,07,13,12,37,20.20
2012,07,13,12,38,20.20
2012,07,13,12,39,20.30
2012,07,13,12,40,20.30
2012,07,13,12,41,20.30
2012,07,13,12,42,20.40
2012,07,13,12,43,20.50
2012,07,13,12,44,20.50
2012,07,13,12,45,20.60
2012,07,13,12,46,20.70
2012,07,13,12,47,20.70
2012,07,13,12,48,20.80
2012,07,13,12,49,20.90
2012,07,13,12,50,20.90
2012,07,13,12,51,21.00
2012,07,13,12,52,21.00
2012,07,13,12,53,21.10
2012,07,13,12,54,21.20
2012,07,13,12,55,21.30
2012,07,13,12,56,21.40
2012,07,13,12,57,21.40
2012,07,13,12,58,21.50
2012,07,13,12,59,21.50
2012,07,13,13,00,21.60
2012,07,13,13,01,21.60
2012,07,13,13,02,21.60
2012,07,13,13,03,21.50
2012,07,13,13,04,21.50
2012,07,13,13,05,21.40
2012,07,13,13,06,21.40
2012,07,13,13,07,21.40
2012,07,13,13,08,21.40
2012,07,13,13,09,21.30
2012,07,13,13,10,21.30
2012,07,13,13,11,21.30
2012,07,13,13,12,21.20
2012,07,13,13,13,21.20
2012,07,13,13,14,21.20
2012,07,13,13,15,21.20
2012,07,13,13,16,21.30
2012,07,13,13,17,21.30
2012,07,13,13,18,21.40
2012,07,13,13,19,21.50
2012,07,13,13,20,21.60
2012,07,13,13,21,21.70
2012,07,13,13,22,21.80
2012,07,13,13,23,21.80
2012,07,13,13,24,21.80
2012,07,13,13,25,21.80
2012,07,13,13,26,21.80
2012,07,13,13,27,21.80
2012,07,13,13,28,21.80
2012,07,13,13,29,21.90
2012,07,13,13,30,21.90
2012,07,13,13,31,21.90
2012,07,13,13,32,21.90
2012,07,13,13,33,21.90
2012,07,13,13,34,21.80
2012,07,13,13,35,21.80
2012,07,13,13,36,21.80
2012,07,13,13,37,21.70
2012,07,13,13,38,21.80
2012,07,13,13,39,21.80
2012,07,13,13,40,21.90
2012,07,13,13,41,21.90
2012,07,13,13,42,22.00
2012,07,13,13,43,22.10
2012,07,13,13,44,22.20
2012,07,13,13,45,22.20
2012,07,13,13,46,22.30
2012,07,13,13,47,22.30
2012,07,13,13,48,22.40
2012,07,13,13,49,22.40
2012,07,13,13,50,22.50
2012,07,13,13,51,22.60
2012,07,13,13,52,22.60
2012,07,13,13,53,22.70
2012,07,13,13,54,22.70
2012,07,13,13,55,22.70
2012,07,13,13,56,22.70
2012,07,13,13,57,22.80
2012,07,13,13,58,22.90
2012,07,13,13,59,22.90
2012,07,13,14,00,23.00
2012,07,13,14,01,22.90
2012,07,13,14,02,22.90
2012,07,13,14,03,22.90
2012,07,13,14,04,22.90
2012,07,13,14,05,22.80
2012,07,13,14,06,22.80
2012,07,13,14,07,22.80
2012,07,13,14,08,22.80
2012,07,13,14,09,22.90
2012,07,13,14,10,22.90
2012,07,13,14,11,22.90
2012,07,13,14,12,22.90
2012,07,13,14,13,22.90
2012,07,13,14,14,22.90
2012,07,13,14,15,22.80
2012,07,13,14,16,22.70
2012,07,13,14,17,22.70
2012,07,13,14,18,22.70
2012,07,13,14,19,22.70
2012,07,13,14,20,22.70
2012,07,13,14,21,22.70
2012,07,13,14,22,22.80
2012,07,13,14,23,22.80
2012,07,13,14,24,22.80
2012,07,13,14,25,22.80
2012,07,13,14,26,22.80
2012,07,13,14,27,22.90
2012,07,13,14,28,23.00
2012,07,13,14,29,23.10
2012,07,13,14,30,23.10
2012,07,13,14,31,23.20
2012,07,13,14,32,23.20
2012,07,13,14,33,23.20
2012,07,13,14,34,23.30
2012,07,13,14,35,23.40
2012,07,13,14,36,23.50
2012,07,13,14,37,23.50
2012,07,13,14,38,23.50
2012,07,13,14,39,23.60
2012,07,13,14,40,23.70
2012,07,13,14,41,23.70
2012,07,13,14,42,23.70
2012,07,13,14,43,23.60
2012,07,13,14,44,23.60
2012,07,13,14,45,23.50
2012,07,13,14,46,23.50
2012,07,13,14,47,23.60
2012,07,13,14,48,23.60
2012,07,13,14,49,23.60
2012,07,13,14,50,23.60
2012,07,13,14,51,23.60
2012,07,13,14,52,23.60
2012,07,13,14,53,23.50
2012,07,13,14,54,23.50
2012,07,13,14,55,23.60
2012,07,13,14,56,23.60
2012,07,13,14,57,23.60
2012,07,13,14,58,23.60
2012,07,13,14,59,23.60
2012,07,13,15,00,23.60
2012,07,13,15,01,23.60
2012,07,13,15,02,23.70
2012,07,13,15,03,23.70
2012,07,13,15,04,23.70
2012,07,13,15,05,23.70
2012,07,13,15,06,23.70
2012,07,13,15,07,23.70
2012,07,13,15,08,23.80
2012,07,13,15,09,23.90
2012,07,13,15,10,23.90
2012,07,13,15,11,23.90
2012,07,13,15,12,23.90
2012,07,13,15,13,23.90
2012,07,13,15,14,23.90
2012,07,13,15,15,23.90
2012,07,13,15,16,23.90
2012,07,13,15,17,24.00
2012,07,13,15,18,24.10
2012,07,13,15,19,24.20
2012,07,13,15,20,24.30
2012,07,13,15,21,24.30
2012,07,13,15,22,24.30
2012,07,13,15,23,24.40
2012,07,13,15,24,24.40
2012,07,13,15,25,24.50
2012,07,13,15,26,24.50
2012,07,13,15,27,24.60
2012,07,13,15,28,24.80
2012,07,13,15,29,24.90
2012,07,13,15,30,25.10
2012,07,13,15,31,25.20
2012,07,13,15,32,25.30
2012,07,13,15,33,25.40
2012,07,13,15,34,25.40
2012,07,13,15,35,25.30
2012,07,13,15,36,25.30
2012,07,13,15,37,25.20
2012,07,13,15,38,25.20
2012,07,13,15,39,25.20
2012,07,13,15,40,25.30
2012,07,13,15,41,25.30
2012,07,13,15,42,25.40
2012,07,13,15,43,25.50
2012,07,13,15,44,25.60
2012,07,13,15,45,25.60
2012,07,13,15,46,25.70
2012,07,13,15,47,25.70
2012,07,13,15,48,25.70
2012,07,13,15,49,25.70
2012,07,13,15,50,25.80
2012,07,13,15,51,25.80
2012,07,13,15,52,25.90
2012,07,13,15,53,26.00
2012,07,13,15,54,26.00
2012,07,13,15,55,25.90
2012,07,13,15,56,25.80
2012,07,13,15,57,25.80
2012,07,13,15,58,25.80
2012,07,13,15,59,25.80
2012,07,13,16,00,25.90
2012,07,13,16,01,25.90
2012,07,13,16,02,26.00
2012,07,13,16,03,26.10
2012,07,13,16,04,26.10
2012,07,13,16,05,26.20
2012,07,13,16,06,26.20
2012,07,13,16,07,26.30
2012,07,13,16,08,26.30
2012,07,13,16,09,26.40
2012,07,13,16,10,26.40
2012,07,13,16,11,26.50
2012,07,13,16,12,26.50
2012,07,13,16,13,26.60
2012,07,13,16,14,26.60
2012,07,13,16,15,26.60
2012,07,13,16,16,26.70
2012,07,13,16,17,26.60
2012,07,13,16,18,26.50
2012,07,13,16,19,26.50
2012,07,13,16,20,26.50
2012,07,13,16,21,26.50
2012,07,13,16,22,26.60
2012,07,13,16,23,26.60
2012,07,13,16,24,26.50
2012,07,13,16,25,26.50
2012,07,13,16,26,26.50
2012,07,13,16,27,26.60
2012,07,13,16,28,26.60
2012,07,13,16,29,26.60
2012,07,13,16,30,26.60
2012,07,13,16,31,26.70
2012,07,13,16,32,26.70
2012,07,13,16,33,26.80
2012,07,13,16,34,26.80
2012,07,13,16,35,26.90
2012,07,13,16,36,27.00
2012,07,13,16,37,27.00
2012,07,13,16,38,27.10
2012,07,13,16,39,27.20
2012,07,13,16,40,27.20
2012,07,13,16,41,27.30
2012,07,13,16,42,27.40
2012,07,13,16,43,27.40
2012,07,13,16,44,27.50
2012,07,13,16,45,27.60
2012,07,13,16,46,27.60
2012,07,13,16,47,27.70
2012,07,13,16,48,27.70
2012,07,13,16,49,27.70
2012,07,13,16,50,27.70
2012,07,13,16,51,27.70
2012,07,13,16,52,27.70
2012,07,13,16,53,27.70
2012,07,13,16,54,27.60
2012,07,13,16,55,27.60
2012,07,13,16,56,27.70
2012,07,13,16,57,27.70
2012,07,13,16,58,27.70
2012,07,13,16,59,27.80
2012,07,13,17,00,27.80
2012,07,13,17,01,27.70
2012,07,13,17,02,27.70
2012,07,13,17,03,27.50
2012,07,13,17,04,27.40
2012,07,13,17,05,27.20
2012,07,13,17,06,27.20
2012,07,13,17,07,27.10
2012,07,13,17,08,27.10
2012,07,13,17,09,27.00
2012,07,13,17,10,26.90
2012,07,13,17,11,26.90
2012,07,13,17,12,27.00
2012,07,13,17,13,27.10
2012,07,13,17,14,27.10
2012,07,13,17,15,27.10
2012,07,13,17,16,27.20
2012,07,13,17,17,27.30
2012,07,13,17,18,27.30
2012,07,13,17,19,27.30